Location: Ceske Budejovice
(48.9830°N, 14.4670°E)
Time: 15:54:45
(UTC+02:00)

BEESAT - Visible Passes

Search period start: 20 August 2019 00:00
Search period end: 30 August 2019 00:00
Orbit: 701 x 709 km, 98.6° (Epoch: 20 August)

Date Brightness Start Highest point End Pass type
(mag) Time Alt. Az. Time Alt. Az. Time Alt. Az.
20 Aug ? 03:27:42 10° ENE 03:29:42 13° NE 03:31:42 10° NNE visible
20 Aug ? 05:01:54 10° SSE 05:06:38 75° ENE 05:11:25 10° NNW visible
21 Aug ? 04:08:43 10° ESE 04:12:38 26° ENE 04:16:35 10° N visible
22 Aug ? 03:18:25 10° ENE 03:19:03 10° NE 03:19:42 10° NE visible
22 Aug ? 04:51:11 10° SSE 04:55:50 59° ENE 05:00:33 10° N visible
23 Aug ? 03:58:20 10° ESE 04:01:55 22° ENE 04:05:32 10° N visible
24 Aug ? 04:40:31 10° SE 04:45:03 47° ENE 04:49:39 10° N visible
25 Aug ? 03:48:04 10° E 03:51:14 18° ENE 03:54:25 10° NNE visible
25 Aug ? 05:23:43 10° S 05:28:27 73° WSW 05:33:15 10° NNW visible
26 Aug ? 04:29:55 10° SE 04:34:17 38° ENE 04:38:43 10° N visible
27 Aug ? 03:37:55 10° E 03:40:33 15° NE 03:43:12 10° NNE visible
27 Aug ? 05:12:51 10° SSE 05:17:37 90° NE 05:22:26 10° NNW visible
27 Aug ? 20:26:14 10° NNW 20:27:59 12° NW 20:29:45 10° WNW visible
28 Aug ? 04:19:23 10° SE 04:23:33 31° ENE 04:27:45 10° N visible
29 Aug ? 03:28:00 10° ENE 03:29:54 12° NE 03:31:48 10° NNE visible
29 Aug ? 05:02:04 10° SSE 05:06:48 72° ENE 05:11:35 10° N visible
